| time (UTC) | temp C | wind direction | speed KPH | gust KPH | rain 1hr cm | rain 24hr cm | rain mn cm | humidity % | barometer mb |
| 20260902123349 | 21 | 215 | 3.2 | 12.9 | 0.00 | 0.00 | 0.00 | 58 | 1019.3 |
| 20260902122849 | 21 | 214 | 1.6 | 12.9 | 0.00 | 0.00 | 0.00 | 60 | 1019.1 |
| 20260902122351 | 21 | 233 | 1.6 | 6.4 | 0.00 | 0.00 | 0.00 | 61 | 1019.3 |
| 20260902121849 | 21 | 245 | 1.6 | 6.4 | 0.00 | 0.00 | 0.00 | 62 | 1019.3 |
| 20260902121349 | 21 | 252 | 1.6 | 4.8 | 0.00 | 0.00 | 0.00 | 62 | 1019.3 |
| 20260902120849 | 21 | 282 | 1.6 | 9.7 | 0.00 | 0.00 | 0.00 | 61 | 1019.4 |
| 20260902120349 | 21 | 278 | 3.2 | 4.8 | 0.00 | 0.00 | 0.00 | 61 | 1019.3 |
| 20260902115849 | 21 | 168 | 3.2 | 9.7 | 0.00 | 0.00 | 0.00 | 60 | 1019.4 |
| 20260902115349 | 22 | 222 | 1.6 | 9.7 | 0.00 | 0.00 | 0.00 | 58 | 1019.5 |
| 20260902114849 | 22 | 113 | 0.0 | 6.4 | 0.00 | 0.00 | 0.00 | 58 | 1019.3 |
| 20260902114349 | 22 | 193 | 3.2 | 6.4 | 0.00 | 0.00 | 0.00 | 58 | 1019.4 |
| 20260902113849 | 22 | 268 | 3.2 | 14.5 | 0.00 | 0.00 | 0.00 | 54 | 1019.5 |
| 20260902113349 | 22 | 232 | 1.6 | 8.0 | 0.00 | 0.00 | 0.00 | 57 | 1019.4 |
| 20260902112849 | 22 | 213 | 0.0 | 4.8 | 0.00 | 0.00 | 0.00 | 58 | 1019.4 |
| 20260902112349 | 22 | 240 | 1.6 | 3.2 | 0.00 | 0.00 | 0.00 | 57 | 1019.4 |
| 20260902111849 | 22 | 180 | 1.6 | 11.3 | 0.00 | 0.00 | 0.00 | 57 | 1019.5 |
| 20260902111351 | 22 | 185 | 1.6 | 9.7 | 0.00 | 0.00 | 0.00 | 56 | 1019.6 |
| 20260902110849 | 22 | 10 | 0.0 | 3.2 | 0.00 | 0.00 | 0.00 | 58 | 1019.7 |
| 20260902110349 | 21 | 160 | 1.6 | 3.2 | 0.00 | 0.00 | 0.00 | 59 | 1019.8 |
| 20260902105849 | 21 | 166 | 3.2 | 9.7 | 0.00 | 0.00 | 0.00 | 60 | 1019.7 |
| 20260902105349 | 21 | 228 | 1.6 | 8.0 | 0.00 | 0.00 | 0.00 | 59 | 1019.8 |
| 20260902104849 | 21 | 272 | 1.6 | 6.4 | 0.00 | 0.00 | 0.00 | 59 | 1019.8 |
| 20260902103849 | 21 | 195 | 1.6 | 8.0 | 0.00 | 0.00 | 0.00 | 59 | 1019.9 |
| 20260902103349 | 21 | 188 | 1.6 | 3.2 | 0.00 | 0.00 | 0.00 | 60 | 1019.8 |
| 20260902102849 | 21 | 297 | 1.6 | 6.4 | 0.00 | 0.00 | 0.00 | 59 | 1020.0 |
| 20260902102348 | 21 | 281 | 1.6 | 6.4 | 0.00 | 0.00 | 0.00 | 59 | 1020.1 |
| 20260902101848 | 21 | 113 | 1.6 | 3.2 | 0.00 | 0.00 | 0.00 | 60 | 1020.0 |
| 20260902101348 | 21 | 273 | 3.2 | 6.4 | 0.00 | 0.00 | 0.00 | 61 | 1020.1 |
| 20260902100848 | 21 | 274 | 1.6 | 6.4 | 0.00 | 0.00 | 0.00 | 61 | 1020.1 |
| 20260902100348 | 21 | 254 | 1.6 | 4.8 | 0.00 | 0.00 | 0.00 | 61 | 1020.2 |
| 20260902095848 | 21 | 321 | 1.6 | 4.8 | 0.00 | 0.00 | 0.00 | 60 | 1020.1 |
| 20260902095348 | 21 | 322 | 1.6 | 4.8 | 0.00 | 0.00 | 0.00 | 61 | 1020.0 |
| 20260902094848 | 21 | 242 | 1.6 | 9.7 | 0.00 | 0.00 | 0.00 | 60 | 1020.1 |
| 20260902094348 | 20 | 176 | 1.6 | 4.8 | 0.00 | 0.00 | 0.00 | 61 | 1020.1 |
| 20260902093848 | 20 | 227 | 3.2 | 6.4 | 0.00 | 0.00 | 0.00 | 62 | 1020.1 |
| 20260902093348 | 20 | 301 | 3.2 | 9.7 | 0.00 | 0.00 | 0.00 | 60 | 1020.3 |
| 20260902092848 | 20 | 247 | 1.6 | 12.9 | 0.00 | 0.00 | 0.00 | 62 | 1020.2 |
| 20260902092348 | 20 | 195 | 1.6 | 4.8 | 0.00 | 0.00 | 0.00 | 63 | 1020.2 |
| 20260902091848 | 20 | 245 | 1.6 | 6.4 | 0.00 | 0.00 | 0.00 | 63 | 1020.2 |
| 20260902091348 | 20 | 248 | 1.6 | 6.4 | 0.00 | 0.00 | 0.00 | 63 | 1020.3 |
| 20260902090848 | 20 | 226 | 1.6 | 9.7 | 0.00 | 0.00 | 0.00 | 66 | 1020.3 |
| 20260902090348 | 20 | 280 | 1.6 | 9.7 | 0.00 | 0.00 | 0.00 | 66 | 1020.4 |
| 20260902085848 | 20 | 173 | 1.6 | 6.4 | 0.00 | 0.00 | 0.00 | 66 | 1020.4 |
| 20260902085348 | 20 | 251 | 3.2 | 6.4 | 0.00 | 0.00 | 0.00 | 67 | 1020.4 |
| 20260902084848 | 20 | 249 | 3.2 | 9.7 | 0.00 | 0.00 | 0.00 | 67 | 1020.6 |
| 20260902084348 | 20 | 258 | 3.2 | 11.3 | 0.00 | 0.00 | 0.00 | 69 | 1020.5 |
| 20260902083848 | 19 | 197 | 1.6 | 11.3 | 0.00 | 0.00 | 0.00 | 70 | 1020.4 |
| 20260902083348 | 19 | 191 | 1.6 | 9.7 | 0.00 | 0.00 | 0.00 | 72 | 1020.4 |
| 20260902082848 | 18 | 173 | 1.6 | 11.3 | 0.00 | 0.00 | 0.00 | 75 | 1020.3 |
| 20260902082348 | 18 | 188 | 1.6 | 4.8 | 0.00 | 0.00 | 0.00 | 77 | 1020.3 |
| 20260902081848 | 18 | 221 | 3.2 | 8.0 | 0.00 | 0.00 | 0.00 | 77 | 1020.5 |
| 20260902081348 | 17 | 210 | 1.6 | 8.0 | 0.00 | 0.00 | 0.00 | 78 | 1020.4 |
| 20260902080848 | 17 | 186 | 1.6 | 8.0 | 0.00 | 0.00 | 0.00 | 79 | 1020.3 |
| 20260902080348 | 17 | 177 | 3.2 | 11.3 | 0.00 | 0.00 | 0.00 | 80 | 1020.3 |
| 20260902075848 | 17 | 232 | 1.6 | 11.3 | 0.00 | 0.00 | 0.00 | 79 | 1020.3 |
| 20260902075348 | 17 | 247 | 1.6 | 6.4 | 0.00 | 0.00 | 0.00 | 81 | 1020.3 |
| 20260902074848 | 17 | 195 | 0.0 | 3.2 | 0.00 | 0.00 | 0.00 | 82 | 1020.2 |
| 20260902074348 | 16 | 186 | 0.0 | 4.8 | 0.00 | 0.00 | 0.00 | 84 | 1020.0 |
| 20260902073848 | 16 | 187 | 0.0 | 4.8 | 0.00 | 0.00 | 0.00 | 85 | 1020.2 |
| 20260902073348 | 16 | 232 | 0.0 | 3.2 | 0.00 | 0.00 | 0.00 | 86 | 1020.3 |
| 20260902072848 | 15 | 181 | 0.0 | 6.4 | 0.00 | 0.00 | 0.00 | 86 | 1020.3 |
| 20260902072348 | 15 | 195 | 0.0 | 1.6 | 0.00 | 0.00 | 0.00 | 87 | 1020.2 |
| 20260902071848 | 15 | 202 | 1.6 | 4.8 | 0.00 | 0.00 | 0.00 | 87 | 1020.2 |
| 20260902071348 | 15 | 259 | 1.6 | 4.8 | 0.00 | 0.00 | 0.00 | 88 | 1020.3 |
| 20260902070848 | 15 | 258 | 1.6 | 6.4 | 0.00 | 0.00 | 0.00 | 88 | 1020.2 |
| 20260902070348 | 15 | 212 | 1.6 | 6.4 | 0.00 | 0.00 | 0.00 | 88 | 1020.4 |
| 20260902065848 | 15 | 231 | 1.6 | 9.7 | 0.00 | 0.00 | 0.00 | 88 | 1020.3 |
| 20260902065348 | 14 | 258 | 1.6 | 8.0 | 0.00 | 0.00 | 0.00 | 89 | 1020.3 |
| 20260902064848 | 14 | 187 | 1.6 | 4.8 | 0.00 | 0.00 | 0.00 | 89 | 1020.4 |
| 20260902064348 | 14 | 195 | 1.6 | 4.8 | 0.00 | 0.00 | 0.00 | 90 | 1020.4 |
| 20260902063848 | 14 | 172 | 1.6 | 6.4 | 0.00 | 0.00 | 0.00 | 91 | 1020.3 |
| 20260902063348 | 14 | 163 | 0.0 | 3.2 | 0.00 | 0.00 | 0.00 | 92 | 1020.3 |
| 20260902062848 | 13 | 190 | 0.0 | 3.2 | 0.00 | 0.00 | 0.00 | 92 | 1020.3 |
| 20260902062348 | 13 | 180 | 0.0 | 1.6 | 0.00 | 0.00 | 0.00 | 93 | 1020.2 |
| 20260902061848 | 13 | 170 | 1.6 | 8.0 | 0.00 | 0.00 | 0.00 | 93 | 1020.2 |
| 20260902061348 | 13 | 195 | 1.6 | 4.8 | 0.00 | 0.00 | 0.00 | 94 | 1020.3 |
| 20260902060848 | 13 | 239 | 0.0 | 3.2 | 0.00 | 0.00 | 0.00 | 95 | 1020.3 |
| 20260902060348 | 13 | 188 | 0.0 | 3.2 | 0.00 | 0.00 | 0.00 | 95 | 1020.2 |
| 20260902055848 | 13 | 249 | 0.0 | 4.8 | 0.00 | 0.00 | 0.00 | 96 | 1020.4 |
| 20260902055348 | 12 | 196 | 0.0 | 1.6 | 0.00 | 0.00 | 0.00 | 97 | 1020.4 |
| 20260902054848 | 12 | 218 | 0.0 | 1.6 | 0.00 | 0.00 | 0.00 | 97 | 1020.3 |
| 20260902054348 | 12 | 192 | 0.0 | 1.6 | 0.00 | 0.00 | 0.00 | 96 | 1020.4 |
| 20260902053848 | 12 | 222 | 0.0 | 1.6 | 0.00 | 0.00 | 0.00 | 96 | 1020.4 |
| 20260902053348 | 11 | 224 | 0.0 | 0.0 | 0.00 | 0.00 | 0.00 | 96 | 1020.4 |
| 20260902052848 | 11 | 26 | 0.0 | 0.0 | 0.00 | 0.00 | 0.00 | 95 | 1020.3 |
| 20260902052348 | 11 | 226 | 0.0 | 0.0 | 0.00 | 0.00 | 0.00 | 96 | 1020.3 |
| 20260902051848 | 11 | 224 | 0.0 | 0.0 | 0.00 | 0.00 | 0.00 | 96 | 1020.4 |
| 20260902051348 | 11 | 224 | 0.0 | 0.0 | 0.00 | 0.00 | 0.00 | 96 | 1020.5 |
| 20260902050848 | 11 | 224 | 0.0 | 0.0 | 0.00 | 0.00 | 0.00 | 95 | 1020.5 |
| 20260902050348 | 11 | 224 | 0.0 | 0.0 | 0.00 | 0.00 | 0.00 | 95 | 1020.4 |
| 20260902045848 | 11 | 224 | 0.0 | 0.0 | 0.00 | 0.00 | 0.00 | 95 | 1020.3 |
| 20260902045348 | 11 | 224 | 0.0 | 0.0 | 0.00 | 0.00 | 0.00 | 95 | 1020.3 |
| 20260902044848 | 11 | 224 | 0.0 | 0.0 | 0.00 | 0.00 | 0.00 | 95 | 1020.2 |
| 20260902044348 | 11 | 225 | 0.0 | 0.0 | 0.00 | 0.00 | 0.00 | 94 | 1020.2 |
| 20260902043848 | 11 | 223 | 0.0 | 0.0 | 0.00 | 0.00 | 0.00 | 94 | 1020.1 |
| 20260902043348 | 11 | 224 | 0.0 | 0.0 | 0.00 | 0.00 | 0.00 | 94 | 1020.1 |
| 20260902042848 | 12 | 226 | 0.0 | 0.0 | 0.00 | 0.00 | 0.00 | 94 | 1020.1 |
| 20260902042348 | 12 | 224 | 0.0 | 0.0 | 0.00 | 0.00 | 0.00 | 95 | 1020.1 |
| 20260902041848 | 12 | 224 | 0.0 | 1.6 | 0.00 | 0.00 | 0.00 | 95 | 1020.2 |
| 20260902041348 | 12 | 226 | 0.0 | 1.6 | 0.00 | 0.00 | 0.00 | 95 | 1020.2 |
| 20260902040848 | 12 | 224 | 0.0 | 0.0 | 0.00 | 0.00 | 0.00 | 95 | 1020.5 |
| 20260902040348 | 12 | 224 | 1.6 | 3.2 | 0.00 | 0.00 | 0.00 | 95 | 1020.4 |
| 20260902035848 | 12 | 26 | 1.6 | 6.4 | 0.00 | 0.00 | 0.00 | 95 | 1020.4 |
| 20260902035348 | 12 | 214 | 1.6 | 6.4 | 0.00 | 0.00 | 0.00 | 95 | 1020.6 |
| 20260902034848 | 12 | 227 | 0.0 | 4.8 | 0.00 | 0.00 | 0.00 | 95 | 1020.6 |
| 20260902034348 | 12 | 26 | 0.0 | 4.8 | 0.00 | 0.00 | 0.00 | 95 | 1020.5 |
| 20260902033848 | 12 | 263 | 0.0 | 1.6 | 0.00 | 0.00 | 0.00 | 95 | 1020.4 |
| 20260902033348 | 12 | 26 | 0.0 | 3.2 | 0.00 | 0.00 | 0.00 | 95 | 1020.5 |
| 20260902032848 | 12 | 272 | 0.0 | 3.2 | 0.00 | 0.00 | 0.00 | 95 | 1020.5 |
| 20260902032348 | 12 | 289 | 0.0 | 1.6 | 0.00 | 0.00 | 0.00 | 95 | 1020.5 |
| 20260902031848 | 12 | 276 | 0.0 | 1.6 | 0.00 | 0.00 | 0.00 | 95 | 1020.5 |
| 20260902031348 | 12 | 278 | 0.0 | 1.6 | 0.00 | 0.00 | 0.00 | 95 | 1020.5 |
| 20260902030848 | 12 | 243 | 0.0 | 3.2 | 0.00 | 0.00 | 0.00 | 95 | 1020.5 |
| 20260902030348 | 12 | 227 | 1.6 | 3.2 | 0.00 | 0.00 | 0.00 | 95 | 1020.4 |
| 20260902025848 | 12 | 210 | 1.6 | 6.4 | 0.00 | 0.00 | 0.00 | 94 | 1020.5 |
| 20260902025348 | 12 | 241 | 1.6 | 6.4 | 0.00 | 0.00 | 0.00 | 94 | 1020.3 |
| 20260902024848 | 12 | 212 | 1.6 | 4.8 | 0.00 | 0.00 | 0.00 | 94 | 1020.2 |
| 20260902024348 | 12 | 26 | 3.2 | 6.4 | 0.00 | 0.00 | 0.00 | 94 | 1020.0 |
| 20260902023848 | 12 | 230 | 1.6 | 6.4 | 0.00 | 0.00 | 0.00 | 94 | 1020.1 |
| 20260902023348 | 12 | 202 | 1.6 | 6.4 | 0.00 | 0.00 | 0.00 | 94 | 1020.0 |
| 20260902022848 | 12 | 240 | 0.0 | 4.8 | 0.00 | 0.00 | 0.00 | 94 | 1020.1 |
| 20260902022348 | 12 | 207 | 0.0 | 0.0 | 0.00 | 0.00 | 0.00 | 93 | 1020.0 |
| 20260902021848 | 12 | 222 | 0.0 | 0.0 | 0.00 | 0.00 | 0.00 | 93 | 1019.9 |
| 20260902021348 | 12 | 26 | 0.0 | 0.0 | 0.00 | 0.00 | 0.00 | 93 | 1019.9 |
| 20260902020849 | 12 | 275 | 0.0 | 0.0 | 0.00 | 0.00 | 0.00 | 93 | 1019.9 |
| 20260902020348 | 12 | 26 | 0.0 | 0.0 | 0.00 | 0.00 | 0.00 | 93 | 1019.9 |
| 20260902015849 | 12 | 276 | 0.0 | 0.0 | 0.00 | 0.00 | 0.00 | 92 | 1019.9 |
| 20260902015348 | 12 | 274 | 0.0 | 0.0 | 0.00 | 0.00 | 0.00 | 91 | 1020.0 |
| 20260902014849 | 12 | 26 | 0.0 | 0.0 | 0.00 | 0.00 | 0.00 | 91 | 1020.0 |
| 20260902014348 | 12 | 275 | 0.0 | 0.0 | 0.00 | 0.00 | 0.00 | 92 | 1020.0 |
| 20260902013849 | 12 | 275 | 0.0 | 0.0 | 0.00 | 0.00 | 0.00 | 93 | 1020.0 |
| 20260902013349 | 13 | 275 | 0.0 | 0.0 | 0.00 | 0.00 | 0.00 | 92 | 1020.0 |
| 20260902012849 | 13 | 274 | 0.0 | 0.0 | 0.00 | 0.00 | 0.00 | 93 | 1020.1 |
| 20260902012349 | 13 | 276 | 0.0 | 0.0 | 0.00 | 0.00 | 0.00 | 93 | 1020.1 |
| 20260902011849 | 13 | 276 | 0.0 | 0.0 | 0.00 | 0.00 | 0.00 | 92 | 1020.1 |
| 20260902011349 | 13 | 276 | 0.0 | 0.0 | 0.00 | 0.00 | 0.00 | 92 | 1020.1 |
| 20260902010849 | 13 | 275 | 0.0 | 0.0 | 0.00 | 0.00 | 0.00 | 92 | 1020.2 |
| 20260902010349 | 13 | 274 | 0.0 | 0.0 | 0.00 | 0.00 | 0.00 | 92 | 1020.3 |
| 20260902005849 | 13 | 26 | 0.0 | 0.0 | 0.00 | 0.00 | 0.00 | 92 | 1020.3 |
| 20260902005349 | 13 | 276 | 0.0 | 0.0 | 0.00 | 0.00 | 0.00 | 91 | 1020.2 |
| 20260902004849 | 13 | 275 | 0.0 | 0.0 | 0.00 | 0.00 | 0.00 | 91 | 1020.2 |
| 20260902004349 | 13 | 275 | 0.0 | 0.0 | 0.00 | 0.00 | 0.00 | 91 | 1020.2 |
| 20260902003849 | 13 | 275 | 0.0 | 0.0 | 0.00 | 0.00 | 0.00 | 91 | 1020.1 |
| 20260902003349 | 13 | 26 | 0.0 | 0.0 | 0.00 | 0.00 | 0.00 | 91 | 1020.3 |
| 20260902002849 | 13 | 275 | 0.0 | 0.0 | 0.00 | 0.00 | 0.00 | 91 | 1020.2 |
| 20260902002349 | 13 | 275 | 0.0 | 0.0 | 0.00 | 0.00 | 0.00 | 91 | 1020.2 |
| 20260902001849 | 13 | 276 | 0.0 | 0.0 | 0.00 | 0.00 | 0.00 | 91 | 1020.2 |
| 20260902001349 | 13 | 275 | 0.0 | 1.6 | 0.00 | 0.00 | 0.00 | 91 | 1020.3 |
| 20260902000849 | 13 | 275 | 0.0 | 3.2 | 0.00 | 0.00 | 0.00 | 91 | 1020.2 |
| 20260902000349 | 13 | 275 | 0.0 | 1.6 | 0.00 | 0.00 | 0.00 | 91 | 1020.1 |
| 20260901235849 | 13 | 275 | 0.0 | 1.6 | 0.00 | 0.00 | 0.00 | 91 | 1020.1 |
| 20260901235349 | 13 | 275 | 0.0 | 3.2 | 0.00 | 0.00 | 0.00 | 91 | 1020.1 |
| 20260901234849 | 14 | 275 | 0.0 | 3.2 | 0.00 | 0.00 | 0.00 | 91 | 1020.1 |
| 20260901234349 | 14 | 244 | 0.0 | 3.2 | 0.00 | 0.00 | 0.00 | 90 | 1020.1 |
| 20260901233849 | 14 | 208 | 0.0 | 1.6 | 0.00 | 0.00 | 0.00 | 90 | 1020.1 |
| 20260901233349 | 14 | 204 | 0.0 | 1.6 | 0.00 | 0.00 | 0.00 | 90 | 1020.1 |
| 20260901232849 | 14 | 230 | 0.0 | 1.6 | 0.00 | 0.00 | 0.00 | 90 | 1020.0 |
| 20260901232349 | 14 | 293 | 0.0 | 1.6 | 0.00 | 0.00 | 0.00 | 90 | 1020.0 |
| 20260901231849 | 14 | 291 | 0.0 | 3.2 | 0.00 | 0.00 | 0.00 | 89 | 1020.0 |
| 20260901231349 | 14 | 228 | 0.0 | 3.2 | 0.00 | 0.00 | 0.00 | 89 | 1020.0 |
| 20260901230849 | 14 | 208 | 0.0 | 3.2 | 0.00 | 0.00 | 0.00 | 89 | 1019.9 |
| 20260901230349 | 15 | 277 | 0.0 | 3.2 | 0.00 | 0.00 | 0.00 | 89 | 1019.9 |
| 20260901225849 | 15 | 185 | 0.0 | 1.6 | 0.00 | 0.00 | 0.00 | 88 | 1019.9 |
| 20260901225349 | 15 | 246 | 0.0 | 1.6 | 0.00 | 0.00 | 0.00 | 88 | 1019.9 |
| 20260901224849 | 15 | 260 | 0.0 | 3.2 | 0.00 | 0.00 | 0.00 | 88 | 1019.9 |
| 20260901224349 | 15 | 206 | 0.0 | 1.6 | 0.00 | 0.00 | 0.00 | 88 | 1019.9 |
| 20260901223849 | 15 | 284 | 0.0 | 1.6 | 0.00 | 0.00 | 0.00 | 88 | 1020.0 |
| 20260901223349 | 15 | 284 | 0.0 | 1.6 | 0.00 | 0.00 | 0.00 | 88 | 1020.0 |
| 20260901222849 | 15 | 285 | 0.0 | 3.2 | 0.00 | 0.00 | 0.00 | 88 | 1020.0 |
| 20260901222349 | 15 | 301 | 0.0 | 1.6 | 0.00 | 0.00 | 0.00 | 87 | 1020.1 |
| 20260901221849 | 15 | 291 | 0.0 | 1.6 | 0.00 | 0.00 | 0.00 | 87 | 1020.0 |
| 20260901221349 | 15 | 289 | 0.0 | 3.2 | 0.00 | 0.00 | 0.00 | 87 | 1020.0 |
| 20260901220849 | 15 | 305 | 0.0 | 4.8 | 0.00 | 0.00 | 0.00 | 87 | 1020.0 |
| 20260901220349 | 15 | 183 | 0.0 | 1.6 | 0.00 | 0.00 | 0.00 | 86 | 1020.0 |
| 20260901215849 | 15 | 293 | 0.0 | 3.2 | 0.00 | 0.00 | 0.00 | 86 | 1020.0 |
| 20260901215349 | 15 | 187 | 0.0 | 4.8 | 0.00 | 0.00 | 0.00 | 86 | 1019.8 |
| 20260901214849 | 15 | 246 | 0.0 | 3.2 | 0.00 | 0.00 | 0.00 | 86 | 1019.8 |
| 20260901214349 | 15 | 287 | 0.0 | 4.8 | 0.00 | 0.00 | 0.00 | 86 | 1019.8 |
| 20260901213849 | 16 | 208 | 0.0 | 3.2 | 0.00 | 0.00 | 0.00 | 85 | 1019.8 |
| 20260901213349 | 16 | 268 | 0.0 | 3.2 | 0.00 | 0.00 | 0.00 | 85 | 1019.9 |
| 20260901212849 | 16 | 26 | 1.6 | 6.4 | 0.00 | 0.00 | 0.00 | 84 | 1019.8 |
| 20260901212349 | 16 | 223 | 0.0 | 6.4 | 0.00 | 0.00 | 0.00 | 84 | 1019.8 |
| 20260901211849 | 16 | 276 | 0.0 | 3.2 | 0.00 | 0.00 | 0.00 | 84 | 1019.8 |
| 20260901211349 | 16 | 226 | 0.0 | 1.6 | 0.00 | 0.00 | 0.00 | 83 | 1019.9 |
| 20260901210849 | 16 | 279 | 0.0 | 1.6 | 0.00 | 0.00 | 0.00 | 83 | 1019.8 |
| 20260901210349 | 16 | 291 | 0.0 | 1.6 | 0.00 | 0.00 | 0.00 | 82 | 1019.9 |
| 20260901205849 | 16 | 318 | 0.0 | 1.6 | 0.00 | 0.00 | 0.00 | 81 | 1019.8 |
| 20260901205349 | 16 | 318 | 0.0 | 3.2 | 0.00 | 0.00 | 0.00 | 81 | 1019.8 |
| 20260901204849 | 16 | 268 | 0.0 | 0.0 | 0.00 | 0.00 | 0.00 | 80 | 1019.7 |
| 20260901204349 | 17 | 268 | 0.0 | 0.0 | 0.00 | 0.00 | 0.00 | 80 | 1019.8 |
| 20260901203849 | 17 | 268 | 0.0 | 1.6 | 0.00 | 0.00 | 0.00 | 80 | 1019.7 |
| 20260901203349 | 17 | 185 | 0.0 | 3.2 | 0.00 | 0.00 | 0.00 | 79 | 1019.7 |
| 20260901202849 | 17 | 300 | 0.0 | 4.8 | 0.00 | 0.00 | 0.00 | 79 | 1019.7 |
| 20260901202349 | 17 | 247 | 1.6 | 4.8 | 0.00 | 0.00 | 0.00 | 78 | 1019.6 |
| 20260901201849 | 17 | 267 | 1.6 | 6.4 | 0.00 | 0.00 | 0.00 | 78 | 1019.7 |
| 20260901201349 | 17 | 277 | 1.6 | 3.2 | 0.00 | 0.00 | 0.00 | 78 | 1019.7 |
| 20260901200849 | 17 | 283 | 1.6 | 6.4 | 0.00 | 0.00 | 0.00 | 78 | 1019.8 |
| 20260901200350 | 17 | 314 | 3.2 | 9.7 | 0.00 | 0.00 | 0.00 | 78 | 1019.6 |
| 20260901195850 | 17 | 264 | 3.2 | 9.7 | 0.00 | 0.00 | 0.00 | 78 | 1019.7 |
| 20260901195350 | 17 | 266 | 1.6 | 9.7 | 0.00 | 0.00 | 0.00 | 78 | 1019.6 |
| 20260901194850 | 17 | 261 | 1.6 | 4.8 | 0.00 | 0.00 | 0.00 | 77 | 1019.6 |
| 20260901194350 | 17 | 227 | 1.6 | 9.7 | 0.00 | 0.00 | 0.00 | 77 | 1019.6 |
| 20260901193850 | 17 | 266 | 1.6 | 9.7 | 0.00 | 0.00 | 0.00 | 77 | 1019.6 |
| 20260901193350 | 17 | 298 | 0.0 | 6.4 | 0.00 | 0.00 | 0.00 | 77 | 1019.6 |
| 20260901192350 | 17 | 267 | 0.0 | 3.2 | 0.00 | 0.00 | 0.00 | 77 | 1019.6 |
| 20260901191850 | 18 | 233 | 0.0 | 1.6 | 0.00 | 0.00 | 0.00 | 76 | 1019.6 |
| 20260901191350 | 18 | 208 | 0.0 | 1.6 | 0.00 | 0.00 | 0.00 | 76 | 1019.6 |
| 20260901190850 | 18 | 203 | 0.0 | 8.0 | 0.00 | 0.00 | 0.00 | 76 | 1019.5 |
| 20260901190350 | 18 | 233 | 0.0 | 3.2 | 0.00 | 0.00 | 0.00 | 76 | 1019.4 |
| 20260901185850 | 18 | 206 | 1.6 | 4.8 | 0.00 | 0.00 | 0.00 | 75 | 1019.4 |
| 20260901185350 | 18 | 239 | 1.6 | 6.4 | 0.00 | 0.00 | 0.00 | 75 | 1019.2 |
| 20260901184850 | 18 | 231 | 0.0 | 6.4 | 0.00 | 0.00 | 0.00 | 75 | 1019.3 |
| 20260901184350 | 18 | 232 | 0.0 | 3.2 | 0.00 | 0.00 | 0.00 | 75 | 1019.2 |
| 20260901183850 | 18 | 256 | 1.6 | 4.8 | 0.00 | 0.00 | 0.00 | 75 | 1019.0 |
| 20260901183350 | 18 | 248 | 1.6 | 8.0 | 0.00 | 0.00 | 0.00 | 75 | 1019.0 |
| 20260901182850 | 18 | 242 | 1.6 | 12.9 | 0.00 | 0.00 | 0.00 | 75 | 1019.0 |
| 20260901182350 | 18 | 296 | 1.6 | 4.8 | 0.00 | 0.00 | 0.00 | 74 | 1019.0 |
| 20260901181850 | 18 | 249 | 1.6 | 6.4 | 0.00 | 0.00 | 0.00 | 74 | 1019.0 |
| 20260901181350 | 18 | 244 | 1.6 | 6.4 | 0.00 | 0.00 | 0.00 | 73 | 1018.9 |
| 20260901180850 | 18 | 219 | 1.6 | 4.8 | 0.00 | 0.00 | 0.00 | 73 | 1018.8 |
| 20260901180350 | 18 | 212 | 1.6 | 6.4 | 0.00 | 0.00 | 0.00 | 72 | 1018.9 |
| 20260901175850 | 18 | 209 | 1.6 | 9.7 | 0.00 | 0.00 | 0.00 | 72 | 1018.8 |
| 20260901175350 | 19 | 262 | 1.6 | 6.4 | 0.00 | 0.00 | 0.00 | 71 | 1018.9 |
| 20260901174850 | 19 | 258 | 1.6 | 9.7 | 0.00 | 0.00 | 0.00 | 71 | 1018.9 |
| 20260901174350 | 19 | 271 | 3.2 | 9.7 | 0.00 | 0.00 | 0.00 | 71 | 1018.8 |
| 20260901173850 | 19 | 237 | 3.2 | 6.4 | 0.00 | 0.00 | 0.00 | 72 | 1018.8 |
| 20260901173350 | 19 | 262 | 3.2 | 6.4 | 0.00 | 0.00 | 0.00 | 72 | 1018.8 |
| 20260901172850 | 19 | 266 | 3.2 | 11.3 | 0.00 | 0.00 | 0.00 | 72 | 1018.7 |
| 20260901172350 | 19 | 298 | 3.2 | 11.3 | 0.00 | 0.00 | 0.00 | 72 | 1018.7 |
| 20260901171850 | 19 | 245 | 1.6 | 6.4 | 0.00 | 0.00 | 0.00 | 72 | 1018.7 |
| 20260901171350 | 19 | 280 | 1.6 | 8.0 | 0.00 | 0.00 | 0.00 | 72 | 1018.7 |
| 20260901170850 | 20 | 188 | 1.6 | 6.4 | 0.00 | 0.00 | 0.00 | 72 | 1018.7 |
| 20260901170350 | 20 | 252 | 3.2 | 6.4 | 0.00 | 0.00 | 0.00 | 72 | 1018.6 |
| 20260901165850 | 20 | 218 | 3.2 | 14.5 | 0.00 | 0.00 | 0.00 | 72 | 1018.7 |
| 20260901165350 | 20 | 307 | 1.6 | 12.9 | 0.00 | 0.00 | 0.00 | 71 | 1018.7 |
| 20260901164850 | 20 | 266 | 0.0 | 3.2 | 0.00 | 0.00 | 0.00 | 72 | 1018.6 |
| 20260901164350 | 20 | 266 | 1.6 | 4.8 | 0.00 | 0.00 | 0.00 | 72 | 1018.5 |
| 20260901163850 | 20 | 320 | 3.2 | 8.0 | 0.00 | 0.00 | 0.00 | 72 | 1018.4 |
| 20260901163350 | 20 | 285 | 4.8 | 9.7 | 0.00 | 0.00 | 0.00 | 72 | 1018.4 |
| 20260901162850 | 20 | 335 | 6.4 | 12.9 | 0.00 | 0.00 | 0.00 | 72 | 1018.4 |
| 20260901162350 | 20 | 328 | 6.4 | 11.3 | 0.00 | 0.00 | 0.00 | 70 | 1018.3 |
| 20260901161850 | 20 | 335 | 8.0 | 9.7 | 0.00 | 0.00 | 0.00 | 70 | 1018.2 |
| 20260901161350 | 20 | 348 | 11.3 | 20.9 | 0.00 | 0.00 | 0.00 | 70 | 1018.3 |
| 20260901160850 | 20 | 344 | 11.3 | 17.7 | 0.00 | 0.00 | 0.00 | 68 | 1018.3 |
| 20260901160350 | 21 | 26 | 12.9 | 22.5 | 0.00 | 0.00 | 0.00 | 67 | 1018.4 |
| 20260901155850 | 21 | 335 | 11.3 | 22.5 | 0.00 | 0.00 | 0.00 | 65 | 1018.3 |
| 20260901155350 | 21 | 343 | 9.7 | 16.1 | 0.00 | 0.00 | 0.00 | 62 | 1018.3 |
| 20260901154850 | 22 | 319 | 9.7 | 16.1 | 0.00 | 0.00 | 0.00 | 60 | 1018.2 |
| 20260901154350 | 22 | 318 | 8.0 | 16.1 | 0.00 | 0.00 | 0.00 | 59 | 1018.2 |
| 20260901153350 | 22 | 324 | 4.8 | 11.3 | 0.00 | 0.00 | 0.00 | 60 | 1018.0 |
| 20260901152850 | 22 | 273 | 4.8 | 14.5 | 0.00 | 0.00 | 0.00 | 60 | 1018.2 |
| 20260901152350 | 22 | 295 | 4.8 | 12.9 | 0.00 | 0.00 | 0.00 | 58 | 1018.2 |
| 20260901151850 | 22 | 282 | 4.8 | 12.9 | 0.00 | 0.81 | 0.00 | 57 | 1018.2 |
| 20260901151350 | 22 | 276 | 4.8 | 12.9 | 0.00 | 0.81 | 0.00 | 58 | 1018.1 |
| 20260901150850 | 22 | 218 | 4.8 | 17.7 | 0.00 | 0.81 | 0.00 | 57 | 1018.1 |
| 20260901150350 | 22 | 220 | 4.8 | 12.9 | 0.00 | 0.81 | 0.00 | 56 | 1017.9 |
| 20260901145850 | 23 | 278 | 4.8 | 8.0 | 0.00 | 0.81 | 0.00 | 55 | 1017.8 |
| 20260901145350 | 23 | 247 | 4.8 | 11.3 | 0.00 | 0.81 | 0.00 | 54 | 1018.0 |
| 20260901144850 | 23 | 307 | 4.8 | 19.3 | 0.00 | 0.81 | 0.00 | 54 | 1017.9 |
| 20260901144350 | 23 | 297 | 4.8 | 11.3 | 0.00 | 0.81 | 0.00 | 55 | 1017.9 |
| 20260901143850 | 23 | 283 | 6.4 | 11.3 | 0.00 | 0.81 | 0.00 | 54 | 1017.9 |
| 20260901143350 | 23 | 271 | 8.0 | 12.9 | 0.00 | 0.81 | 0.00 | 54 | 1017.9 |
| 20260901142850 | 23 | 308 | 6.4 | 19.3 | 0.00 | 0.81 | 0.00 | 54 | 1017.9 |
| 20260901142350 | 23 | 323 | 4.8 | 14.5 | 0.00 | 0.81 | 0.00 | 55 | 1017.8 |
| 20260901141850 | 23 | 297 | 6.4 | 19.3 | 0.00 | 0.81 | 0.00 | 55 | 1017.9 |
| 20260901141350 | 24 | 79 | 4.8 | 16.1 | 0.00 | 0.81 | 0.00 | 53 | 1017.9 |
| 20260901140850 | 24 | 280 | 4.8 | 12.9 | 0.00 | 0.81 | 0.00 | 54 | 1018.0 |
| 20260901135850 | 24 | 290 | 4.8 | 9.7 | 0.00 | 0.81 | 0.00 | 55 | 1017.9 |
| 20260901135350 | 23 | 251 | 6.4 | 12.9 | 0.00 | 0.81 | 0.00 | 54 | 1017.9 |
| 20260901134850 | 23 | 299 | 4.8 | 12.9 | 0.00 | 0.81 | 0.00 | 55 | 1017.9 |
| 20260901134350 | 23 | 315 | 6.4 | 12.9 | 0.00 | 0.81 | 0.00 | 56 | 1018.0 |
| 20260901133852 | 23 | 233 | 6.4 | 12.9 | 0.00 | 0.81 | 0.00 | 55 | 1018.0 |
| 20260901133350 | 23 | 272 | 6.4 | 14.5 | 0.00 | 0.81 | 0.00 | 55 | 1018.1 |
| 20260901132850 | 23 | 268 | 4.8 | 11.3 | 0.00 | 0.81 | 0.00 | 56 | 1018.0 |
| 20260901132350 | 23 | 287 | 6.4 | 17.7 | 0.00 | 0.81 | 0.00 | 56 | 1018.1 |
| 20260901131850 | 23 | 229 | 6.4 | 14.5 | 0.00 | 0.81 | 0.00 | 56 | 1018.0 |
| 20260901131350 | 23 | 253 | 4.8 | 14.5 | 0.00 | 0.81 | 0.00 | 58 | 1018.1 |
| 20260901130850 | 23 | 270 | 6.4 | 12.9 | 0.00 | 0.81 | 0.00 | 59 | 1018.1 |
| 20260901130350 | 22 | 306 | 8.0 | 17.7 | 0.00 | 0.81 | 0.00 | 58 | 1018.1 |
| 20260901125850 | 22 | 325 | 8.0 | 17.7 | 0.00 | 0.81 | 0.00 | 58 | 1018.1 |
| 20260901125350 | 22 | 326 | 6.4 | 19.3 | 0.00 | 0.81 | 0.00 | 58 | 1018.2 |
| 20260901124850 | 22 | 274 | 6.4 | 17.7 | 0.00 | 0.81 | 0.00 | 57 | 1018.2 |
| 20260901124350 | 22 | 286 | 6.4 | 16.1 | 0.00 | 0.81 | 0.00 | 58 | 1018.2 |
| 20260901123850 | 22 | 299 | 6.4 | 12.9 | 0.00 | 0.81 | 0.00 | 58 | 1018.3 |